Location: Absher
(46.5583°N, 107.9840°W)
Time: 06:53:24
(UTC+00:00)

STRAND 1 - Pass Details

Date: 10 April 2023
Orbit: 767 x 779 km, 98.4° (Epoch: 03 June)

Event Time Altitude Azimuth Distance (km) Brightness Sun altitude
Rises 03:17:13 0° 3° (N) 3,250 ? -14.6°
Reaches altitude 10° 03:19:52 10° 351° (N) 2,318 ? -15.0°
Maximum altitude 03:23:58 25° 297° (WNW) 1,508 ? -15.6°
Drops below altitude 10° 03:28:04 10° 243° (WSW) 2,308 ? -16.2°
Sets 03:30:42 0° 231° (SW) 3,231 ? -16.6°
